STARLINK AB

Last updated on Jan. 16, 2020, 12:02 a.m. UTC

1 44939U 20001AB  20015.58334491  .00338968  00000-0  15595-2 0  9991
2 44939  52.9995 354.7815 0006321 228.0259 186.7885 15.82129756  1351

Satellite is not in orbit.